Weather History for KROC - October, 2013

Change the Weather History Date:

Thursday, October 31, 2013

  Actual Average Record
Temperature  
Mean Temperature 54 °F 46 °F  
Max Temperature 68 °F 54 °F 80 °F (1971)
Min Temperature 40 °F 37 °F 21 °F (1988)
Degree Days  
Heating Degree Days 11 19  
Month to date heating degree days 365 452  
Since 1 July heating degree days 555 633  
Cooling Degree Days 0 0  
Month to date cooling degree days 10 5  
Year to date cooling degree days 660 539  
Growing Degree Days 4 (Base 50)    
Moisture  
Dew Point 50 °F    
Average Humidity 81    
Maximum Humidity 93    
Minimum Humidity 68    
Precipitation  
Precipitation 0.49 in 0.09 in 0.90 in (1993)
Month to date precipitation 3.32 2.72  
Year to date precipitation 30.94 28.70  
Snow  
Snow 0.00 in 0.00 in 4.00 in (1906)
Month to date snowfall 0.0 0.1  
Since 1 July snowfall 0.0 0.1  
Since 1 September snowfall 0.0 0.1  
Snow Depth 0.00 in    
Sea Level Pressure  
Sea Level Pressure 29.81 in    
Wind  
Wind Speed 8 mph (SSW)    
Max Wind Speed 22 mph    
Max Gust Speed 32 mph    
Visibility 8 miles    
Events Rain    
T = Trace of Precipitation, MM = Missing Value Source: NWS Daily Summary

Daily Weather History Graph

Daily Weather History Graph

Search for Another Location

Airport or City:

Trip Planner

Search our weather history database for the weather conditions in past years. The results will help you decide how hot, cold, wet, or windy it might be!

Date:

Astronomy

Oct. 31, 2013 Rise Set
Actual Time 7:44 AM EDT 6:03 PM EDT
Civil Twilight 7:14 AM EDT 6:33 PM EDT
Nautical Twilight 6:41 AM EDT 7:06 PM EDT
Astronomical Twilight 6:08 AM EDT 7:39 PM EDT
Moon 4:27 AM EDT (10/31) 4:24 PM EDT (10/31)
Length of Visible Light 11h 18m
Length of Day
10h 19m
Waning Crescent, 10% of the Moon is Illuminated
Oct 31
Waning Crescent
Nov 3
New
Nov 10
First Quarter
Nov 17
Full
Nov 25
Last Quarter

Hourly Weather History & Observations

Time (EDT) Temp. Windchill Dew Point Humidity Pressure Visibility Wind Dir Wind Speed Gust Speed Precip Events Conditions
12:54 AM 43.0 °F 41.3 °F 37.0 °F 80% 30.09 in 10.0 mi South 3.5 mph - N/A   Clear
1:54 AM 41.0 °F - 37.0 °F 86% 30.09 in 10.0 mi Calm Calm - N/A   Clear
2:54 AM 42.1 °F 40.2 °F 37.0 °F 82% 30.05 in 10.0 mi SSW 3.5 mph - N/A   Clear
3:54 AM 44.1 °F 42.5 °F 37.9 °F 79% 30.01 in 10.0 mi SSW 3.5 mph - N/A   Clear
4:54 AM 43.0 °F 41.3 °F 37.9 °F 82% 29.99 in 10.0 mi SW 3.5 mph - N/A   Scattered Clouds
5:54 AM 44.1 °F - 41.0 °F 89% 29.97 in 10.0 mi Calm Calm - 0.01 in Rain Light Rain
6:54 AM 45.0 °F - 42.1 °F 90% 29.94 in 6.0 mi Calm Calm - 0.03 in Rain Light Rain
7:29 AM 46.4 °F - 44.6 °F 93% 29.91 in 2.0 mi Calm Calm - 0.07 in Rain Rain
7:54 AM 46.0 °F - 44.1 °F 93% 29.91 in 2.5 mi Calm Calm - 0.15 in Rain Rain
8:38 AM 50.0 °F - 48.2 °F 94% 29.89 in 1.5 mi SSW 5.8 mph - 0.12 in Rain Rain
8:54 AM 53.1 °F - 52.0 °F 96% 29.89 in 3.0 mi South 6.9 mph - 0.14 in Rain Light Rain
9:54 AM 55.9 °F - 54.0 °F 93% 29.88 in 4.0 mi SSW 5.8 mph - 0.03 in Rain Light Rain
10:54 AM 59.0 °F - 55.0 °F 87% 29.84 in 10.0 mi SSW 12.7 mph - 0.01 in   Overcast
11:54 AM 61.0 °F - 55.9 °F 83% 29.82 in 10.0 mi SSW 10.4 mph - N/A   Overcast
12:54 PM 63.0 °F - 57.0 °F 81% 29.78 in 10.0 mi SSW 10.4 mph - N/A   Overcast
1:54 PM 66.9 °F - 57.0 °F 70% 29.74 in 10.0 mi South 11.5 mph 23.0 mph N/A   Overcast
2:54 PM 66.9 °F - 57.9 °F 73% 29.72 in 10.0 mi South 11.5 mph - N/A   Overcast
3:54 PM 68.0 °F - 57.0 °F 68% 29.71 in 10.0 mi SSW 10.4 mph - N/A   Overcast
4:54 PM 66.9 °F - 55.9 °F 68% 29.69 in 10.0 mi SSW 10.4 mph - 0.00 in   Overcast
5:54 PM 66.9 °F - 55.0 °F 66% 29.66 in 10.0 mi SSW 16.1 mph 21.9 mph N/A   Overcast
6:54 PM 64.9 °F - 54.0 °F 68% 29.64 in 10.0 mi SSW 11.5 mph 18.4 mph 0.00 in Rain Light Rain
7:54 PM 63.0 °F - 57.0 °F 81% 29.61 in 10.0 mi South 6.9 mph - 0.01 in   Overcast
8:54 PM 64.0 °F - 55.0 °F 73% 29.55 in 10.0 mi SSW 15.0 mph 24.2 mph 0.00 in Rain Light Rain
9:54 PM 62.1 °F - 55.9 °F 80% 29.50 in 10.0 mi SSW 9.2 mph 18.4 mph 0.00 in Rain Light Rain
10:54 PM 61.0 °F - 57.0 °F 87% 29.46 in 6.0 mi SSW 11.5 mph - 0.05 in Rain Light Rain
11:54 PM 62.1 °F - 57.0 °F 84% 29.40 in 10.0 mi SSW 16.1 mph 26.5 mph 0.06 in Rain Light Rain